Weather History for Logansport, IN

Change the Weather History Date:

Saturday, March 9, 2013

  Actual Average Record
Temperature  
Mean Temperature 35 °F -  
Max Temperature 42 °F 51 °F 42 °F (2013)
Min Temperature 28 °F 33 °F 19 °F (2014)
Degree Days  
Heating Degree Days 30    
Moisture  
Dew Point 30 °F    
Average Humidity 82    
Maximum Humidity 93    
Minimum Humidity 70    
Precipitation  
Precipitation 0.00 in - - ()
Sea Level Pressure  
Sea Level Pressure 30.17 in    
Wind  
Wind Speed 8 mph (ESE)    
Max Wind Speed 12 mph    
Max Gust Speed -    
Visibility 10 miles    
Events Rain    
Averages and records for this station are not official NWS values.
T = Trace of Precipitation, MM = Missing Value Source: NWS Daily Summary

Daily Weather History Graph

Daily Weather History Graph

Search for Another Location

Airport:

Trip Planner

Search our weather history database for the weather conditions in past years. The results will help you decide how hot, cold, wet, or windy it might be!

Date:

Astronomy

Mar. 09, 2013 Rise Set
Actual Time 7:06 AM EST 6:46 PM EST
Civil Twilight 6:39 AM EST 7:13 PM EST
Nautical Twilight 6:07 AM EST 7:45 PM EST
Astronomical Twilight 5:35 AM EST 8:17 PM EST
Moon 5:30 AM EST (3/9) 4:47 PM EST (3/9)
Length of Visible Light 12h 34m
Length of Day
11h 39m
Waning Crescent, 5% of the Moon is Illuminated
Mar 9
Waning Crescent
Mar 11
New
Mar 19
First Quarter
Mar 27
Full
Apr 3
Last Quarter

Hourly Weather History & Observations

Time (EST) Temp. Windchill Dew Point Humidity Pressure Visibility Wind Dir Wind Speed Gust Speed Precip Events Conditions
12:15 AM 28.4 °F 21.2 °F 23.0 °F 80% 30.37 in 10.0 mi East 6.9 mph - N/A   Clear
12:35 AM 28.4 °F 20.4 °F 23.0 °F 80% 30.36 in 10.0 mi East 8.1 mph - N/A   Clear
12:55 AM 28.4 °F 20.4 °F 23.0 °F 80% 30.35 in 10.0 mi East 8.1 mph - N/A   Clear
1:15 AM 28.4 °F 20.4 °F 23.0 °F 80% 30.34 in 10.0 mi East 8.1 mph - N/A   Clear
1:35 AM 28.4 °F 19.7 °F 24.8 °F 86% 30.34 in 10.0 mi East 9.2 mph - N/A   Clear
1:55 AM 30.2 °F 22.6 °F 24.8 °F 80% 30.33 in 10.0 mi ESE 8.1 mph - N/A   Clear
2:15 AM 30.2 °F 22.6 °F 24.8 °F 80% 30.33 in 10.0 mi ESE 8.1 mph - N/A   Clear
2:35 AM 30.2 °F 21.9 °F 24.8 °F 80% 30.33 in 10.0 mi ESE 9.2 mph - N/A   Clear
2:55 AM 28.4 °F 19.7 °F 24.8 °F 86% 30.31 in 10.0 mi ESE 9.2 mph - N/A   Clear
3:15 AM 28.4 °F 19.7 °F 24.8 °F 86% 30.30 in 10.0 mi ESE 9.2 mph - N/A   Clear
3:35 AM 30.2 °F 22.6 °F 26.6 °F 86% 30.30 in 10.0 mi SE 8.1 mph - N/A   Clear
3:55 AM 30.2 °F 21.9 °F 26.6 °F 86% 30.29 in 10.0 mi SE 9.2 mph - N/A   Clear
4:15 AM 30.2 °F 21.9 °F 26.6 °F 86% 30.29 in 10.0 mi ESE 9.2 mph - N/A   Clear
4:35 AM 30.2 °F 22.6 °F 26.6 °F 86% 30.28 in 10.0 mi ESE 8.1 mph - N/A   Clear
4:55 AM 30.2 °F 23.4 °F 26.6 °F 86% 30.28 in 10.0 mi East 6.9 mph - N/A   Clear
5:15 AM 30.2 °F 24.3 °F 26.6 °F 86% 30.28 in 10.0 mi East 5.8 mph - N/A   Clear
5:35 AM 30.2 °F 20.8 °F 26.6 °F 86% 30.26 in 10.0 mi East 11.5 mph - N/A   Clear
5:55 AM 30.2 °F 23.4 °F 26.6 °F 86% 30.27 in 10.0 mi ESE 6.9 mph - N/A   Clear
6:15 AM 30.2 °F 22.6 °F 26.6 °F 86% 30.27 in 10.0 mi ESE 8.1 mph - N/A   Clear
6:35 AM 32.0 °F 23.0 °F 26.6 °F 80% 30.27 in 10.0 mi ESE 11.5 mph - N/A   Clear
6:55 AM 32.0 °F 24.2 °F 26.6 °F 80% 30.27 in 10.0 mi ESE 9.2 mph - N/A   Scattered Clouds
7:15 AM 32.0 °F 24.2 °F 28.4 °F 87% 30.27 in 10.0 mi SE 9.2 mph - N/A   Scattered Clouds
7:35 AM 32.0 °F 25.6 °F 28.4 °F 87% 30.27 in 10.0 mi SE 6.9 mph - N/A   Scattered Clouds
7:55 AM 32.0 °F 28.7 °F 28.4 °F 87% 30.28 in 7.0 mi SSE 3.5 mph - N/A   Mostly Cloudy
8:15 AM 32.0 °F 27.5 °F 28.4 °F 87% 30.28 in 10.0 mi SE 4.6 mph - N/A   Overcast
8:35 AM 32.0 °F 25.6 °F 28.4 °F 87% 30.28 in 10.0 mi East 6.9 mph - N/A   Mostly Cloudy
8:55 AM 32.0 °F 25.6 °F 28.4 °F 87% 30.28 in 10.0 mi East 6.9 mph - N/A   Scattered Clouds
9:15 AM 32.0 °F 26.4 °F 30.2 °F 93% 30.27 in 10.0 mi East 5.8 mph - N/A   Mostly Cloudy
9:35 AM 33.8 °F 28.6 °F 30.2 °F 87% 30.27 in 10.0 mi ESE 5.8 mph - N/A   Overcast
9:55 AM 33.8 °F 27.7 °F 30.2 °F 87% 30.27 in 10.0 mi SE 6.9 mph - N/A   Overcast
10:15 AM 33.8 °F 27.7 °F 30.2 °F 87% 30.26 in 10.0 mi SE 6.9 mph - N/A   Overcast
10:35 AM 35.6 °F 29.9 °F 30.2 °F 81% 30.26 in 10.0 mi SE 6.9 mph - N/A   Overcast
10:55 AM 35.6 °F 29.2 °F 30.2 °F 81% 30.26 in 10.0 mi SE 8.1 mph - N/A   Overcast
11:15 AM 35.6 °F 29.9 °F 30.2 °F 81% 30.25 in 10.0 mi SE 6.9 mph - N/A   Overcast
11:35 AM 37.4 °F 31.4 °F 32.0 °F 81% 30.22 in 10.0 mi East 8.1 mph - N/A   Overcast
11:55 AM 37.4 °F 30.8 °F 32.0 °F 81% 30.21 in 10.0 mi East 9.2 mph - N/A   Scattered Clouds
12:15 PM 37.4 °F 30.3 °F 32.0 °F 81% 30.20 in 10.0 mi ESE 10.4 mph - N/A   Clear
12:35 PM 39.2 °F 32.0 °F 32.0 °F 75% 30.18 in 10.0 mi ESE 11.5 mph - N/A   Clear
12:55 PM 41.0 °F 34.7 °F 32.0 °F 70% 30.17 in 10.0 mi SE 10.4 mph - N/A   Clear
1:15 PM 41.0 °F 34.7 °F 32.0 °F 70% 30.17 in 10.0 mi SE 10.4 mph - N/A   Clear
1:35 PM 41.0 °F 35.8 °F 32.0 °F 70% 30.16 in 10.0 mi SE 8.1 mph - N/A   Clear
1:55 PM 41.0 °F 35.2 °F 32.0 °F 70% 30.15 in 10.0 mi SSE 9.2 mph - N/A   Clear
2:15 PM 41.0 °F 34.7 °F 32.0 °F 70% 30.14 in 10.0 mi SE 10.4 mph - N/A   Clear
2:35 PM 41.0 °F 34.7 °F 32.0 °F 70% 30.13 in 10.0 mi SE 10.4 mph - N/A   Mostly Cloudy
2:55 PM 41.0 °F 34.7 °F 32.0 °F 70% 30.10 in 10.0 mi ESE 10.4 mph - N/A   Mostly Cloudy
3:15 PM 41.0 °F 37.1 °F 33.8 °F 76% 30.10 in 10.0 mi ESE 5.8 mph - N/A Rain Rain
3:35 PM 41.0 °F 35.8 °F 33.8 °F 76% 30.09 in 10.0 mi ESE 8.1 mph - N/A   Light Drizzle
3:55 PM 42.8 °F 38.0 °F 33.8 °F 70% 30.07 in 10.0 mi ESE 8.1 mph - N/A   Overcast
4:15 PM 41.0 °F 36.4 °F 33.8 °F 76% 30.07 in 10.0 mi East 6.9 mph - N/A   Overcast
4:35 PM 41.0 °F 38.0 °F 35.6 °F 81% 30.07 in 10.0 mi ESE 4.6 mph - N/A Rain Light Rain
4:55 PM 39.2 °F 34.2 °F 35.6 °F 87% 30.06 in 10.0 mi ESE 6.9 mph - N/A Rain Light Rain
5:15 PM 39.2 °F 33.6 °F 35.6 °F 87% 30.06 in 10.0 mi ESE 8.1 mph - N/A Rain Light Rain
5:35 PM 39.2 °F 33.0 °F 35.6 °F 87% 30.05 in 10.0 mi ESE 9.2 mph - N/A   Overcast
5:55 PM 39.2 °F 32.5 °F 35.6 °F 87% 30.04 in 10.0 mi ESE 10.4 mph - N/A   Mostly Cloudy
6:15 PM 37.4 °F 30.8 °F 33.8 °F 87% 30.03 in 10.0 mi ESE 9.2 mph - N/A   Overcast
6:35 PM 37.4 °F 29.8 °F 33.8 °F 87% 30.02 in 10.0 mi ESE 11.5 mph - N/A   Overcast
6:55 PM 37.4 °F 30.3 °F 33.8 °F 87% 30.02 in 10.0 mi ESE 10.4 mph - N/A   Overcast
7:15 PM 37.4 °F 30.3 °F 33.8 °F 87% 30.02 in 10.0 mi ESE 10.4 mph - N/A   Overcast
7:35 PM 35.6 °F 28.0 °F 33.8 °F 93% 30.01 in 10.0 mi ESE 10.4 mph - N/A   Scattered Clouds
7:55 PM 35.6 °F 29.2 °F 32.0 °F 87% 30.01 in 10.0 mi ESE 8.1 mph - N/A   Clear
8:15 PM 35.6 °F 29.2 °F 32.0 °F 87% 30.00 in 10.0 mi ESE 8.1 mph - N/A   Clear
8:35 PM 35.6 °F 28.6 °F 32.0 °F 87% 29.98 in 10.0 mi ESE 9.2 mph - N/A   Clear
8:55 PM 37.4 °F 31.4 °F 32.0 °F 81% 29.97 in 10.0 mi ESE 8.1 mph - N/A   Clear
9:15 PM 37.4 °F 30.8 °F 33.8 °F 87% 29.96 in 10.0 mi SE 9.2 mph - N/A   Clear
9:35 PM 39.2 °F 32.0 °F 33.8 °F 81% 29.96 in 10.0 mi SE 11.5 mph - N/A   Scattered Clouds
9:55 PM 41.0 °F 34.7 °F 33.8 °F 76% 29.96 in 10.0 mi SE 10.4 mph - N/A   Scattered Clouds
10:15 PM 41.0 °F 35.8 °F 33.8 °F 76% 29.96 in 10.0 mi SE 8.1 mph - N/A   Scattered Clouds
10:35 PM 41.0 °F 37.1 °F 33.8 °F 76% 29.96 in 10.0 mi SE 5.8 mph - N/A   Mostly Cloudy
10:55 PM 41.0 °F 35.8 °F 33.8 °F 76% 29.95 in 10.0 mi SE 8.1 mph - N/A   Overcast
11:15 PM 39.2 °F 33.6 °F 33.8 °F 81% 29.95 in 10.0 mi SSE 8.1 mph - N/A   Mostly Cloudy
11:35 PM 37.4 °F 31.4 °F 32.0 °F 81% 29.94 in 10.0 mi SSE 8.1 mph - N/A   Scattered Clouds
11:55 PM 37.4 °F 32.1 °F 32.0 °F 81% 29.94 in 10.0 mi SSE 6.9 mph - N/A   Clear